Hurlburt Field, FL

9:01 PM CDT on March 24, 2017 (GMT -0500)
Hurlburt

Weather History for KHRT - March, 2013

Change the Weather History Date:

Friday, March 22, 2013

  Actual Average Record
Temperature  
Mean Temperature 56 °F -  
Max Temperature 65 °F 68 °F 84 °F (2017)
Min Temperature 47 °F 50 °F 37 °F (2016)
Degree Days  
Heating Degree Days 10    
Growing Degree Days 6 (Base 50)    
Moisture  
Dew Point 45 °F    
Average Humidity 61    
Maximum Humidity 87    
Minimum Humidity 42    
Precipitation  
Precipitation 0.00 in - - ()
Sea Level Pressure  
Sea Level Pressure 29.94 in    
Wind  
Wind Speed 8 mph (East)    
Max Wind Speed 16 mph    
Max Gust Speed 25 mph    
Visibility 10 miles    
Events      
Averages and records for this station are not official NWS values.
T = Trace of Precipitation, MM = Missing Value Source: NWS Daily Summary

Daily Weather History Graph

Daily Weather History Graph

Search for Another Location

Airport or City:

Trip Planner

Search our weather history database for the weather conditions in past years. The results will help you decide how hot, cold, wet, or windy it might be!

Date:

Astronomy

Mar. 22, 2013 Rise Set
Actual Time 6:47 AM CDT 6:59 PM CDT
Civil Twilight 6:23 AM CDT 7:23 PM CDT
Nautical Twilight 5:55 AM CDT 7:51 PM CDT
Astronomical Twilight 5:27 AM CDT 8:20 PM CDT
Moon 2:42 PM CDT (3/22) 3:30 AM CDT (3/22)
Length of Visible Light 12h 59m
Length of Day
12h 11m
Waxing Gibbous, 77% of the Moon is Illuminated
Mar 22
Waxing Gibbous
Mar 27
Full
Apr 2
Last Quarter
Apr 10
New
Apr 18
First Quarter

Hourly Weather History & Observations

Time (CDT) Temp. Dew Point Humidity Pressure Visibility Wind Dir Wind Speed Gust Speed Precip Events Conditions
12:58 AM 47.5 °F 43.9 °F 87% 29.92 in 10.0 mi North 5.8 mph - N/A   Overcast
1:58 AM 48.2 °F 43.0 °F 82% 29.93 in 10.0 mi North 4.6 mph - N/A   Overcast
2:58 AM 50.2 °F 43.5 °F 78% 29.91 in 10.0 mi NNE 3.5 mph - N/A   Overcast
3:58 AM 52.3 °F 42.3 °F 69% 29.92 in 10.0 mi NNE 3.5 mph - N/A   Overcast
4:58 AM 51.6 °F 38.3 °F 60% 29.92 in 10.0 mi NE 9.2 mph - N/A   Mostly Cloudy
5:58 AM 52.0 °F 35.6 °F 54% 29.93 in 10.0 mi East 6.9 mph - N/A   Scattered Clouds
6:58 AM 52.3 °F 36.5 °F 55% 29.98 in 10.0 mi ENE 9.2 mph - N/A   Overcast
7:58 AM 52.7 °F 33.8 °F 49% 29.99 in 10.0 mi East 11.5 mph - N/A   Overcast
8:58 AM 55.2 °F 36.7 °F 50% 29.98 in 10.0 mi East 9.2 mph 23.0 mph N/A   Overcast
9:58 AM 58.3 °F 37.0 °F 45% 29.96 in 10.0 mi East 16.1 mph 23.0 mph N/A   Mostly Cloudy
10:26 AM 60.8 °F 37.4 °F 42% 29.96 in 10.0 mi ESE 16.1 mph 25.3 mph N/A   Scattered Clouds
10:58 AM 61.2 °F 38.3 °F 43% 29.97 in 10.0 mi ESE 15.0 mph - N/A   Overcast
11:58 AM 60.4 °F 43.7 °F 54% 29.97 in 10.0 mi ESE 10.4 mph 23.0 mph N/A   Overcast
12:58 PM 63.5 °F 49.1 °F 59% 29.96 in 10.0 mi ESE 11.5 mph 18.4 mph N/A   Overcast
1:58 PM 62.6 °F 50.9 °F 66% 29.94 in 10.0 mi ESE 15.0 mph 23.0 mph N/A   Mostly Cloudy
2:58 PM 64.8 °F 53.4 °F 67% 29.91 in 10.0 mi ESE 13.8 mph 23.0 mph N/A   Partly Cloudy
3:58 PM 62.4 °F 51.6 °F 68% 29.92 in 10.0 mi ESE 10.4 mph - N/A   Overcast
4:58 PM 62.6 °F 51.1 °F 66% 29.91 in 10.0 mi ESE 10.4 mph - N/A   Overcast
5:58 PM 62.6 °F 50.0 °F 63% 29.91 in 10.0 mi SE 9.2 mph 16.1 mph N/A   Overcast
6:58 PM 62.6 °F 49.1 °F 61% 29.91 in 10.0 mi ESE 9.2 mph - N/A   Overcast
7:58 PM 62.8 °F 49.8 °F 63% 29.92 in 10.0 mi ESE 6.9 mph - N/A   Overcast
8:58 PM 63.3 °F 50.0 °F 62% 29.92 in 10.0 mi East 8.1 mph - N/A   Overcast
9:13 PM 62.6 °F 50.0 °F 63% 29.92 in 10.0 mi ESE 8.1 mph - N/A   Overcast
9:58 PM 63.5 °F 51.3 °F 64% 29.93 in 10.0 mi ESE 6.9 mph - N/A   Overcast
10:58 PM 63.5 °F 52.0 °F 66% 29.92 in 10.0 mi East 5.8 mph - N/A   Overcast
11:58 PM 63.3 °F 44.2 °F 50% 29.91 in 10.0 mi East 8.1 mph - N/A   Overcast